CCA122 ZKPY-ZBAA

Flight info

Callsign CCA122
Flight time 1h 46m
Altitude 38100
Route JONJU L683 YOMJU A575 GOLOT A345 BIDIB A575 UKDUM W49 OSUBA
Aircraft B737/M-SDE2E3FGHIRWXY/LB1

Departure

Time 2026-04-21 11:24
Airport Pyongyang Sunan International Airport (ZKPY)

Arrival

Time 2026-04-21 13:10
Airport Beijing Capital International Airport (ZBAA)
Time Latitude Longitude Altitude Speed Heading
2026-04-21 11:10 39.20086 125.67541 109 ft 0 kts 78°
2026-04-21 11:18 39.20081 125.67513 105 ft 3 kts 78°
2026-04-21 11:18 39.20079 125.67486 109 ft 4 kts 115°
2026-04-21 11:18 39.20096 125.67467 107 ft 4 kts 162°
2026-04-21 11:19 39.20107 125.67463 109 ft 0 kts 165°
2026-04-21 11:20 39.20075 125.67474 109 ft 12 kts 165°
2026-04-21 11:20 39.19972 125.67513 109 ft 16 kts 163°
2026-04-21 11:21 39.19866 125.67555 109 ft 16 kts 163°
2026-04-21 11:21 39.19752 125.67600 109 ft 17 kts 163°
2026-04-21 11:21 39.19638 125.67644 108 ft 17 kts 162°
2026-04-21 11:21 39.19532 125.67687 108 ft 16 kts 163°
2026-04-21 11:22 39.19406 125.67737 108 ft 23 kts 163°
2026-04-21 11:22 39.19259 125.67794 107 ft 18 kts 163°
2026-04-21 11:22 39.19143 125.67826 107 ft 17 kts 189°
2026-04-21 11:22 39.19095 125.67711 107 ft 16 kts 276°
2026-04-21 11:23 39.19145 125.67590 107 ft 15 kts 315°
2026-04-21 11:23 39.19241 125.67544 108 ft 26 kts 343°
2026-04-21 11:23 39.19673 125.67373 107 ft 102 kts 342°
2026-04-21 11:23 39.20554 125.67024 116 ft 161 kts 342°
2026-04-21 11:24 39.21649 125.66610 749 ft 161 kts 339°
2026-04-21 11:24 39.22706 125.66114 1546 ft 162 kts 326°
2026-04-21 11:24 39.23618 125.65343 2245 ft 163 kts 312°
2026-04-21 11:24 39.24626 125.64363 2571 ft 198 kts 314°
2026-04-21 11:25 39.25805 125.63248 2906 ft 225 kts 315°
2026-04-21 11:25 39.27157 125.62001 3321 ft 248 kts 316°
2026-04-21 11:25 39.28581 125.60707 4246 ft 249 kts 317°
2026-04-21 11:25 39.30000 125.59435 5412 ft 248 kts 319°
2026-04-21 11:26 39.31437 125.58166 6457 ft 252 kts 320°
2026-04-21 11:26 39.32886 125.56870 7408 ft 254 kts 320°
2026-04-21 11:26 39.34352 125.55550 8304 ft 259 kts 320°
2026-04-21 11:26 39.35841 125.54214 9265 ft 262 kts 320°
2026-04-21 11:27 39.37350 125.52866 10196 ft 265 kts 321°
2026-04-21 11:27 39.38916 125.51468 10665 ft 285 kts 321°
2026-04-21 11:27 39.40620 125.49938 10877 ft 311 kts 321°
2026-04-21 11:27 39.42449 125.48306 11057 ft 336 kts 322°
2026-04-21 11:28 39.44414 125.46557 11569 ft 347 kts 322°
2026-04-21 11:28 39.46415 125.44767 12349 ft 351 kts 322°
2026-04-21 11:28 39.48429 125.42960 13203 ft 352 kts 321°
2026-04-21 11:28 39.50380 125.41029 14043 ft 354 kts 318°
2026-04-21 11:29 39.52292 125.38997 14819 ft 356 kts 317°
2026-04-21 11:29 39.54198 125.36939 15619 ft 358 kts 317°
2026-04-21 11:29 39.56123 125.34867 16426 ft 360 kts 317°
2026-04-21 11:29 39.58065 125.32789 17187 ft 364 kts 317°
2026-04-21 11:30 39.60026 125.30700 17978 ft 366 kts 317°
2026-04-21 11:30 39.62002 125.28602 18737 ft 367 kts 317°
2026-04-21 11:30 39.63979 125.26505 19424 ft 368 kts 316°
2026-04-21 11:30 39.65966 125.24396 20098 ft 370 kts 316°
2026-04-21 11:31 39.67959 125.22277 20753 ft 371 kts 316°
2026-04-21 11:31 39.69887 125.20054 21385 ft 370 kts 311°
2026-04-21 11:31 39.71674 125.17700 22022 ft 371 kts 310°
2026-04-21 11:31 39.73443 125.15267 22662 ft 371 kts 309°
2026-04-21 11:32 39.75217 125.12811 23288 ft 373 kts 309°
2026-04-21 11:32 39.77004 125.10352 23777 ft 375 kts 309°
2026-04-21 11:32 39.78809 125.07887 24214 ft 378 kts 309°
2026-04-21 11:32 39.80632 125.05413 24652 ft 380 kts 309°
2026-04-21 11:33 39.82471 125.02925 25076 ft 382 kts 309°
2026-04-21 11:33 39.84322 125.00424 25462 ft 385 kts 308°
2026-04-21 11:33 39.86187 124.97906 25879 ft 387 kts 308°
2026-04-21 11:33 39.88032 124.95415 26344 ft 386 kts 308°
2026-04-21 11:34 39.89902 124.92888 26743 ft 388 kts 308°
2026-04-21 11:34 39.91778 124.90348 27071 ft 391 kts 308°
2026-04-21 11:34 39.93668 124.87788 27431 ft 392 kts 307°
2026-04-21 11:34 39.95555 124.85231 27886 ft 392 kts 307°
2026-04-21 11:35 39.97448 124.82663 28226 ft 394 kts 307°
2026-04-21 11:35 39.99346 124.80086 28643 ft 393 kts 307°
2026-04-21 11:35 40.01235 124.77523 29258 ft 389 kts 306°
2026-04-21 11:35 40.03101 124.74989 29936 ft 385 kts 306°
2026-04-21 11:36 40.04950 124.72473 30395 ft 383 kts 306°
2026-04-21 11:36 40.06799 124.69952 30694 ft 385 kts 305°
2026-04-21 11:36 40.08649 124.67426 31054 ft 385 kts 305°
2026-04-21 11:36 40.10496 124.64904 31472 ft 383 kts 305°
2026-04-21 11:37 40.12336 124.62391 31881 ft 382 kts 304°
2026-04-21 11:37 40.14148 124.59915 32257 ft 382 kts 304°
2026-04-21 11:37 40.15979 124.57411 32659 ft 380 kts 304°
2026-04-21 11:37 40.17794 124.54905 33067 ft 376 kts 301°
2026-04-21 11:38 40.19323 124.52194 33393 ft 366 kts 294°
2026-04-21 11:38 40.20597 124.49333 33738 ft 362 kts 290°
2026-04-21 11:38 40.21685 124.46389 34079 ft 356 kts 285°
2026-04-21 11:38 40.22461 124.43348 34454 ft 349 kts 281°
2026-04-21 11:39 40.23118 124.40311 34887 ft 344 kts 281°
2026-04-21 11:39 40.23779 124.37311 35253 ft 343 kts 284°
2026-04-21 11:39 40.24924 124.34505 35537 ft 356 kts 296°
2026-04-21 11:39 40.26585 124.32026 35823 ft 368 kts 305°
2026-04-21 11:40 40.28592 124.29935 36128 ft 381 kts 313°
2026-04-21 11:40 40.30951 124.28228 36476 ft 397 kts 322°
2026-04-21 11:40 40.33724 124.27276 36833 ft 426 kts 335°
2026-04-21 11:40 40.36679 124.26853 37260 ft 427 kts 338°
2026-04-21 11:41 40.39645 124.26550 37597 ft 427 kts 338°
2026-04-21 11:41 40.42622 124.26278 37739 ft 429 kts 338°
2026-04-21 11:41 40.45596 124.26000 38022 ft 426 kts 338°
2026-04-21 11:41 40.48543 124.25719 37989 ft 424 kts 338°
2026-04-21 11:42 40.54438 124.25086 38065 ft 426 kts 337°
2026-04-21 11:42 40.60340 124.24424 38020 ft 424 kts 337°
2026-04-21 11:43 40.66210 124.23766 38012 ft 422 kts 337°
2026-04-21 11:43 40.72060 124.23107 38004 ft 422 kts 337°
2026-04-21 11:44 40.77885 124.22447 38006 ft 423 kts 336°
2026-04-21 11:44 40.83753 124.21784 37989 ft 423 kts 336°
2026-04-21 11:45 40.89624 124.21120 37989 ft 423 kts 336°
2026-04-21 11:45 40.95495 124.20457 38020 ft 423 kts 336°
2026-04-21 11:46 41.01361 124.19791 37978 ft 422 kts 336°
2026-04-21 11:46 41.07214 124.19156 37962 ft 423 kts 337°
2026-04-21 11:47 41.13062 124.18626 37957 ft 423 kts 337°
2026-04-21 11:47 41.18953 124.18136 37955 ft 424 kts 338°
2026-04-21 11:48 41.24831 124.17669 37940 ft 422 kts 338°
2026-04-21 11:48 41.30677 124.17187 37927 ft 420 kts 338°
2026-04-21 11:49 41.33555 124.16867 37924 ft 401 kts 329°
2026-04-21 11:49 41.36028 124.15686 38035 ft 361 kts 314°
2026-04-21 11:49 41.38020 124.13843 37980 ft 339 kts 303°
2026-04-21 11:49 41.39576 124.11571 37968 ft 328 kts 296°
2026-04-21 11:50 41.41772 124.06382 37897 ft 316 kts 281°
2026-04-21 11:50 41.42597 124.00678 37916 ft 317 kts 276°
2026-04-21 11:51 41.43256 123.94856 37943 ft 319 kts 275°
2026-04-21 11:51 41.43919 123.89000 37920 ft 318 kts 275°
2026-04-21 11:52 41.44583 123.83217 37921 ft 314 kts 275°
2026-04-21 11:52 41.45243 123.77484 37927 ft 311 kts 275°
2026-04-21 11:53 41.45896 123.71792 37927 ft 311 kts 275°
2026-04-21 11:53 41.46543 123.66133 37931 ft 311 kts 275°
2026-04-21 11:54 41.47193 123.60431 37930 ft 312 kts 275°
2026-04-21 11:54 41.47843 123.54693 37926 ft 314 kts 275°
2026-04-21 11:55 41.48495 123.48919 37926 ft 315 kts 275°
2026-04-21 11:55 41.49147 123.43126 37928 ft 317 kts 275°
2026-04-21 11:56 41.49799 123.37303 37925 ft 317 kts 275°
2026-04-21 11:56 41.50448 123.31479 37922 ft 317 kts 275°
2026-04-21 11:57 41.51119 123.25648 37921 ft 318 kts 275°
2026-04-21 11:57 41.51831 123.19846 37922 ft 319 kts 276°
2026-04-21 11:58 41.52548 123.13996 37921 ft 320 kts 275°
2026-04-21 11:58 41.53260 123.08138 37917 ft 320 kts 275°
2026-04-21 11:59 41.53967 123.02275 37908 ft 320 kts 275°
2026-04-21 11:59 41.54672 122.96400 37860 ft 320 kts 275°
2026-04-21 12:00 41.55372 122.90537 37899 ft 320 kts 275°
2026-04-21 12:00 41.56070 122.84652 37911 ft 321 kts 275°
2026-04-21 12:01 41.56770 122.78738 37899 ft 322 kts 275°
2026-04-21 12:01 41.57462 122.72858 37906 ft 323 kts 275°
2026-04-21 12:02 41.58506 122.63943 37901 ft 324 kts 275°
2026-04-21 12:03 41.59081 122.59003 37905 ft 324 kts 275°
2026-04-21 12:03 41.59773 122.53032 37911 ft 325 kts 275°
2026-04-21 12:04 41.60464 122.47048 37904 ft 326 kts 275°
2026-04-21 12:04 41.61148 122.41091 37894 ft 327 kts 275°
2026-04-21 12:05 41.61836 122.35077 37888 ft 327 kts 275°
2026-04-21 12:05 41.62520 122.29061 37887 ft 327 kts 275°
2026-04-21 12:06 41.63203 122.23039 37888 ft 327 kts 275°
2026-04-21 12:06 41.63883 122.17009 37893 ft 328 kts 275°
2026-04-21 12:07 41.64353 122.10934 37887 ft 328 kts 269°
2026-04-21 12:07 41.64060 122.04900 37904 ft 327 kts 265°
2026-04-21 12:08 41.63610 121.98848 37883 ft 328 kts 264°
2026-04-21 12:08 41.63159 121.92781 37894 ft 328 kts 264°
2026-04-21 12:09 41.62711 121.86704 37890 ft 328 kts 264°
2026-04-21 12:09 41.62263 121.80629 37898 ft 329 kts 264°
2026-04-21 12:10 41.61812 121.74543 37895 ft 329 kts 264°
2026-04-21 12:10 41.61360 121.68467 37898 ft 328 kts 264°
2026-04-21 12:11 41.60903 121.62389 37894 ft 328 kts 264°
2026-04-21 12:11 41.60445 121.56320 37894 ft 328 kts 264°
2026-04-21 12:12 41.59983 121.50250 37889 ft 328 kts 264°
2026-04-21 12:12 41.59519 121.44187 37880 ft 328 kts 264°
2026-04-21 12:13 41.59053 121.38156 37881 ft 328 kts 264°
2026-04-21 12:13 41.58581 121.32076 37891 ft 330 kts 264°
2026-04-21 12:14 41.58104 121.25971 37894 ft 331 kts 264°
2026-04-21 12:14 41.57623 121.19856 37897 ft 331 kts 264°
2026-04-21 12:15 41.57231 121.13728 37883 ft 332 kts 266°
2026-04-21 12:15 41.56958 121.07604 37895 ft 332 kts 266°
2026-04-21 12:16 41.56677 121.01459 37903 ft 332 kts 266°
2026-04-21 12:16 41.56382 120.95322 37897 ft 331 kts 265°
2026-04-21 12:17 41.56079 120.89174 37898 ft 332 kts 265°
2026-04-21 12:17 41.55770 120.83010 37901 ft 333 kts 265°
2026-04-21 12:18 41.55457 120.76823 37903 ft 334 kts 265°
2026-04-21 12:18 41.55141 120.70670 37905 ft 335 kts 265°
2026-04-21 12:19 41.54820 120.64460 37898 ft 335 kts 265°
2026-04-21 12:19 41.54494 120.58235 37894 ft 335 kts 265°
2026-04-21 12:20 41.54167 120.52027 37918 ft 335 kts 265°
2026-04-21 12:20 41.53835 120.45814 37914 ft 336 kts 265°
2026-04-21 12:21 41.53610 120.39573 37911 ft 337 kts 267°
2026-04-21 12:21 41.53542 120.33304 37914 ft 338 kts 267°
2026-04-21 12:22 41.53477 120.27064 37912 ft 339 kts 267°
2026-04-21 12:22 41.53400 120.20771 37920 ft 339 kts 267°
2026-04-21 12:23 41.53314 120.14460 37929 ft 339 kts 267°
2026-04-21 12:23 41.53223 120.08153 37928 ft 340 kts 267°
2026-04-21 12:24 41.53126 120.01832 37923 ft 340 kts 267°
2026-04-21 12:24 41.53027 119.95519 37937 ft 340 kts 267°
2026-04-21 12:25 41.52924 119.89253 37926 ft 340 kts 267°
2026-04-21 12:25 41.52817 119.82944 37948 ft 340 kts 267°
2026-04-21 12:26 41.52706 119.76611 37906 ft 341 kts 266°
2026-04-21 12:26 41.52592 119.70270 37946 ft 343 kts 266°
2026-04-21 12:27 41.52474 119.63895 37948 ft 344 kts 266°
2026-04-21 12:27 41.52352 119.57526 37932 ft 346 kts 266°
2026-04-21 12:28 41.52226 119.51116 37945 ft 346 kts 266°
2026-04-21 12:28 41.52095 119.44689 37945 ft 347 kts 266°
2026-04-21 12:29 41.51962 119.38244 37945 ft 348 kts 266°
2026-04-21 12:29 41.51824 119.31789 37958 ft 348 kts 266°
2026-04-21 12:30 41.51683 119.25340 37950 ft 348 kts 266°
2026-04-21 12:30 41.51538 119.18896 37952 ft 347 kts 266°
2026-04-21 12:31 41.51390 119.12484 37923 ft 347 kts 266°
2026-04-21 12:31 41.51239 119.06047 37959 ft 348 kts 266°
2026-04-21 12:32 41.51083 118.99586 37961 ft 349 kts 266°
2026-04-21 12:32 41.50923 118.93106 37959 ft 349 kts 266°
2026-04-21 12:33 41.50759 118.86601 37970 ft 351 kts 266°
2026-04-21 12:33 41.50591 118.80067 37972 ft 353 kts 266°
2026-04-21 12:34 41.50429 118.73549 37978 ft 354 kts 266°
2026-04-21 12:34 41.50294 118.66979 37980 ft 354 kts 266°
2026-04-21 12:35 41.50157 118.60401 37982 ft 354 kts 266°
2026-04-21 12:35 41.50014 118.53847 37963 ft 352 kts 266°
2026-04-21 12:36 41.49865 118.47290 38000 ft 355 kts 266°
2026-04-21 12:36 41.49783 118.40714 37992 ft 359 kts 268°
2026-04-21 12:37 41.49881 118.34031 37990 ft 360 kts 269°
2026-04-21 12:37 41.49986 118.27341 37993 ft 361 kts 268°
2026-04-21 12:38 41.50071 118.20617 37991 ft 363 kts 268°
2026-04-21 12:38 41.50145 118.13889 37970 ft 363 kts 268°
2026-04-21 12:39 41.50212 118.07151 37975 ft 364 kts 268°
2026-04-21 12:39 41.50275 118.00404 37991 ft 364 kts 268°
2026-04-21 12:40 41.50332 117.93659 37990 ft 364 kts 268°
2026-04-21 12:40 41.50386 117.86951 37987 ft 363 kts 268°
2026-04-21 12:41 41.50437 117.80208 37973 ft 363 kts 268°
2026-04-21 12:41 41.50483 117.73479 37977 ft 363 kts 268°
2026-04-21 12:42 41.50526 117.66750 37973 ft 363 kts 268°
2026-04-21 12:42 41.50564 117.60014 37979 ft 363 kts 268°
2026-04-21 12:43 41.50598 117.53324 37978 ft 363 kts 268°
2026-04-21 12:43 41.50630 117.46573 37987 ft 364 kts 268°
2026-04-21 12:44 41.50657 117.39794 37984 ft 366 kts 268°
2026-04-21 12:44 41.49997 117.33111 37542 ft 369 kts 250°
2026-04-21 12:44 41.48805 117.30084 36921 ft 370 kts 240°
2026-04-21 12:45 41.47162 117.27430 36415 ft 373 kts 231°
2026-04-21 12:45 41.45159 117.25192 35775 ft 380 kts 223°
2026-04-21 12:45 41.42792 117.23496 35152 ft 394 kts 210°
2026-04-21 12:45 41.40115 117.22481 34444 ft 404 kts 204°
2026-04-21 12:46 41.37395 117.21677 33652 ft 408 kts 203°
2026-04-21 12:46 41.34613 117.20927 32729 ft 405 kts 202°
2026-04-21 12:46 41.31862 117.20200 31890 ft 401 kts 202°
2026-04-21 12:46 41.29137 117.19467 31014 ft 398 kts 202°
2026-04-21 12:47 41.26433 117.18722 30115 ft 397 kts 201°
2026-04-21 12:47 41.23730 117.17961 29081 ft 397 kts 201°
2026-04-21 12:47 41.21029 117.17191 28034 ft 397 kts 201°
2026-04-21 12:47 41.18321 117.16417 26963 ft 398 kts 201°
2026-04-21 12:48 41.15601 117.15636 25914 ft 400 kts 201°
2026-04-21 12:48 41.12878 117.14856 25056 ft 399 kts 201°
2026-04-21 12:48 41.10164 117.14082 24218 ft 398 kts 201°
2026-04-21 12:48 41.07460 117.13310 23377 ft 395 kts 199°
2026-04-21 12:49 41.04789 117.12549 22504 ft 391 kts 199°
2026-04-21 12:49 41.02172 117.11807 21696 ft 387 kts 199°
2026-04-21 12:49 40.99550 117.11062 20906 ft 383 kts 199°
2026-04-21 12:49 40.96955 117.10324 20115 ft 380 kts 198°
2026-04-21 12:50 40.94366 117.09587 19332 ft 379 kts 198°
2026-04-21 12:50 40.91790 117.08853 18533 ft 379 kts 198°
2026-04-21 12:50 40.89210 117.08120 17653 ft 379 kts 197°
2026-04-21 12:50 40.86643 117.07392 16841 ft 376 kts 197°
2026-04-21 12:51 40.84097 117.06670 16024 ft 373 kts 197°
2026-04-21 12:51 40.81573 117.05955 15252 ft 369 kts 197°
2026-04-21 12:51 40.79071 117.05244 14454 ft 367 kts 196°
2026-04-21 12:51 40.76585 117.04543 13693 ft 363 kts 196°
2026-04-21 12:52 40.74150 117.03742 12891 ft 355 kts 206°
2026-04-21 12:52 40.72121 117.02140 12630 ft 327 kts 223°
2026-04-21 12:52 40.70986 117.00886 12431 ft 317 kts 226°
2026-04-21 12:52 40.69378 116.98971 12222 ft 308 kts 226°
2026-04-21 12:53 40.67773 116.97064 12033 ft 313 kts 226°
2026-04-21 12:53 40.66122 116.95145 11808 ft 319 kts 225°
2026-04-21 12:53 40.64444 116.93236 11568 ft 317 kts 225°
2026-04-21 12:53 40.62774 116.91354 11356 ft 315 kts 224°
2026-04-21 12:54 40.61134 116.89509 11144 ft 314 kts 225°
2026-04-21 12:54 40.59478 116.87641 10909 ft 313 kts 224°
2026-04-21 12:54 40.57826 116.85778 10687 ft 311 kts 224°
2026-04-21 12:54 40.56185 116.83932 10488 ft 310 kts 224°
2026-04-21 12:55 40.54500 116.82153 10269 ft 314 kts 215°
2026-04-21 12:55 40.52416 116.81211 10057 ft 324 kts 188°
2026-04-21 12:55 40.50151 116.81306 9819 ft 327 kts 176°
2026-04-21 12:55 40.47904 116.81666 9584 ft 325 kts 174°
2026-04-21 12:56 40.45670 116.82060 9374 ft 324 kts 174°
2026-04-21 12:56 40.43432 116.82448 9081 ft 324 kts 175°
2026-04-21 12:56 40.41193 116.82814 8859 ft 322 kts 175°
2026-04-21 12:56 40.38980 116.83167 8626 ft 317 kts 176°
2026-04-21 12:57 40.36833 116.83503 8392 ft 313 kts 175°
2026-04-21 12:57 40.34654 116.83837 8206 ft 310 kts 174°
2026-04-21 12:57 40.32573 116.84161 7989 ft 298 kts 175°
2026-04-21 12:57 40.30567 116.84475 7751 ft 283 kts 175°
2026-04-21 12:58 40.28667 116.84767 7570 ft 268 kts 175°
2026-04-21 12:58 40.26864 116.85046 7446 ft 254 kts 174°
2026-04-21 12:58 40.25151 116.85089 7248 ft 242 kts 199°
2026-04-21 12:58 40.23757 116.84007 7135 ft 231 kts 229°
2026-04-21 12:59 40.22872 116.82289 6979 ft 227 kts 250°
2026-04-21 12:59 40.22501 116.80292 6845 ft 227 kts 264°
2026-04-21 12:59 40.22319 116.78231 6671 ft 229 kts 265°
2026-04-21 12:59 40.22152 116.76157 6497 ft 227 kts 265°
2026-04-21 13:00 40.22050 116.74122 6327 ft 222 kts 277°
2026-04-21 13:00 40.22607 116.72288 6171 ft 218 kts 306°
2026-04-21 13:00 40.23768 116.71008 6021 ft 222 kts 332°
2026-04-21 13:00 40.25260 116.70449 5881 ft 225 kts 349°
2026-04-21 13:01 40.26820 116.70205 5708 ft 226 kts 352°
2026-04-21 13:01 40.28395 116.69988 5551 ft 229 kts 351°
2026-04-21 13:01 40.29975 116.69732 5388 ft 228 kts 349°
2026-04-21 13:01 40.31560 116.69507 5202 ft 231 kts 353°
2026-04-21 13:02 40.33148 116.69369 5056 ft 232 kts 353°
2026-04-21 13:02 40.34746 116.69092 4919 ft 231 kts 341°
2026-04-21 13:02 40.36773 116.66314 4575 ft 200 kts 281°
2026-04-21 13:03 40.36867 116.64593 4436 ft 185 kts 261°
2026-04-21 13:03 40.36717 116.62923 4370 ft 186 kts 262°
2026-04-21 13:03 40.36563 116.61227 4233 ft 187 kts 261°
2026-04-21 13:03 40.36384 116.59537 4081 ft 185 kts 254°
2026-04-21 13:04 40.35656 116.58227 3899 ft 183 kts 207°
2026-04-21 13:04 40.34405 116.57941 3910 ft 187 kts 186°
2026-04-21 13:04 40.33076 116.57896 3546 ft 195 kts 184°
2026-04-21 13:04 40.31721 116.57893 3086 ft 193 kts 182°
2026-04-21 13:05 40.30431 116.58037 3007 ft 192 kts 167°
2026-04-21 13:05 40.29227 116.58861 2824 ft 192 kts 158°
2026-04-21 13:05 40.28028 116.59336 2865 ft 176 kts 188°
2026-04-21 13:05 40.26839 116.59021 2901 ft 177 kts 195°
2026-04-21 13:06 40.25656 116.58693 2886 ft 175 kts 192°
2026-04-21 13:06 40.24426 116.58766 2903 ft 181 kts 176°
2026-04-21 13:06 40.23174 116.59023 2915 ft 183 kts 177°
2026-04-21 13:06 40.21908 116.59250 2734 ft 182 kts 178°
2026-04-21 13:07 40.20652 116.59455 2486 ft 180 kts 179°
2026-04-21 13:07 40.19424 116.59648 2237 ft 175 kts 179°
2026-04-21 13:07 40.18274 116.59833 2011 ft 154 kts 180°
2026-04-21 13:07 40.17287 116.59988 1794 ft 131 kts 182°
2026-04-21 13:08 40.16444 116.60120 1614 ft 115 kts 183°
2026-04-21 13:08 40.15645 116.60240 1455 ft 117 kts 182°
2026-04-21 13:08 40.14837 116.60365 1293 ft 117 kts 181°
2026-04-21 13:08 40.14026 116.60510 1119 ft 117 kts 179°
2026-04-21 13:09 40.13220 116.60659 951 ft 120 kts 177°
2026-04-21 13:09 40.12365 116.60785 792 ft 126 kts 178°
2026-04-21 13:09 40.11480 116.60883 594 ft 130 kts 174°
2026-04-21 13:09 40.10575 116.61030 413 ft 131 kts 173°
2026-04-21 13:10 40.09658 116.61178 256 ft 135 kts 174°
2026-04-21 13:10 40.08753 116.61318 125 ft 119 kts 174°
2026-04-21 13:10 40.08027 116.61432 121 ft 88 kts 173°
2026-04-21 13:10 40.07593 116.61498 120 ft 46 kts 173°
2026-04-21 13:11 40.07375 116.61516 121 ft 25 kts 185°
2026-04-21 13:11 40.07213 116.61451 120 ft 23 kts 202°
2026-04-21 13:11 40.07073 116.61373 120 ft 19 kts 198°
2026-04-21 13:11 40.06968 116.61299 120 ft 18 kts 255°
2026-04-21 13:12 40.06955 116.61172 120 ft 12 kts 264°
2026-04-21 13:12 40.06945 116.61062 123 ft 12 kts 263°
2026-04-21 13:12 40.06953 116.60993 123 ft 4 kts 298°
2026-04-21 13:12 40.06982 116.60973 119 ft 8 kts 345°
2026-04-21 13:13 40.07023 116.60922 123 ft 8 kts 263°
2026-04-21 13:13 40.07016 116.60852 123 ft 5 kts 264°
2026-04-21 13:13 40.07016 116.60849 122 ft 0 kts 263°